[Date Prev][Date Next][Thread Prev][Thread Next] - [Date Index][Thread Index][Author Index]
2 Line ISS Keps 12-13
- Subject: [sarex] 2 Line ISS Keps 12-13
- From: "Dave Larsen PhD" <doc@xxxxxxxxxxx>
- Date: Sat, 13 Dec 2003 03:53:11 -0800
ISS
1 25544U 98067A 03347.16153959 .00012592 00000-0 12817-3 0 8862
2 25544 51.6285 197.0395 0006049 240.9758 218.2116 15.65542665288988
----
Via the sarex mailing list at AMSAT.ORG courtesy of AMSAT-NA.
To unsubscribe, send "unsubscribe sarex" to Majordomo@amsat.org
AMSAT Home